Location: Peebles
(55.6412°N, 3.1714°W)
Time: 04:17:18
(UTC+01:00)

Envisat - Pass Details

Date: 19 August 2022
Orbit: 763 x 764 km, 98.2° (Epoch: 22 September)

Event Time Altitude Azimuth Distance (km) Brightness Sun altitude
Rises 04:38:47 0° 22° (NNE) 3,247 7.5 -9.6°
Reaches altitude 10° 04:41:31 10° 35° (NE) 2,315 6.9 -9.3°
Maximum altitude 04:45:42 25° 91° (E) 1,512 5.2 -8.8°
Drops below altitude 10° 04:49:51 10° 146° (SE) 2,299 5.5 -8.4°
Sets 04:52:32 0° 159° (SSE) 3,220 6.1 -8.1°
